Location: Les Jeannots
(43.2262°N, 5.5774°E)
Time: 02:34:58
(UTC+00:00)

Cosmos 158 Rocket - Pass Details

Date: 05 July 2020
Orbit: 698 x 794 km, 74.0° (Epoch: 04 August)

Event Time Altitude Azimuth Distance (km) Brightness Sun altitude
Exits shadow 22:52:57 33° 239° (WSW) 1,167 4.7 -23.1°
Maximum altitude 22:54:46 50° 294° (WNW) 886 4.5 -23.2°
Drops below altitude 10° 22:59:32 10° 11° (N) 2,181 7.3 -23.4°
Sets 23:01:57 0° 16° (NNE) 3,112 8.2 -23.5°
